Regional Weather Roundup
Issued by NWS

Home | Current Version | Previous Version | Graphics & Text | Print | Product List | Glossary Off
Versions: 1 2 3 4 5 6 7 8 9 10 11 12 13 14 15 16 17 18 19 20 21 22 23 24 25 26 27 28 29 30 31 32 33 34 35 36 37 38 39 40 41 42 43 44 45 46 47 48 49 50

118
ASUS43 KDTX 242310
RWRMI
MICHIGAN HOURLY REGIONAL WEATHER ROUNDUP
NATIONAL WEATHER SERVICE DETROIT/PONTIAC MI
700 PM EDT SAT SEP 24 2016

NOTE: "FAIR" INDICATES FEW OR NO CLOUDS BELOW 12,000 FEET WITH NO
SIGNIFICANT WEATHER AND/OR OBSTRUCTION TO VISIBILITY.

MIZ047>049-052>055-059>063-066>070-074>076-081>083-250000-
SOUTHEAST LOWER MICHIGAN

CITY           SKY/WX    TMP DP  RH WIND       PRES   REMARKS
ADRIAN         CLEAR     68  54  60 SE6       30.21R
ALMA           CLEAR     65  51  59 N5        30.22S
ANN ARBOR      CLEAR     66  48  52 CALM      30.21R
BAD AXE        CLOUDY    57  44  60 NE6       30.27R
CARO           CLEAR     61  46  57 E5        30.23S
DETROIT CITY   CLEAR     65  47  52 NE6       30.22R
DETROIT        PTCLDY    67  44  43 NE5       30.22R
FLINT          CLEAR     64  46  52 NE9       30.22S
GROSSE ILE     PTCLDY    66  54  66 CALM      30.21R
HILLSDALE      MOCLDY    68  54  60 NE5       30.19S
HOWELL         CLEAR     65  51  62 NE3       30.22R

CITY           SKY/WX    TMP DP  RH WIND       PRES   REMARKS
JACKSON        CLEAR     67  53  61 NE7       30.20R
LAMBERTVILLE   CLEAR     67  54  63 E6        30.21R
LANSING        CLEAR     65  51  60 E7        30.21F
LAPEER         FAIR      62  46  55 E5        30.24S
MASON          CLEAR     66  52  61 E3        30.21S
MONROE         CLEAR     66  55  69 SE6       30.20R
MT. CLEMENS    PTCLDY    62  46  55 NE8       30.21R
PONTIAC        PTCLDY    65  48  54 NE6       30.21S
PORT HOPE        N/A     61  44  53 NE7       30.25S
PORT HURON     CLEAR     59  48  67 CALM      30.24S
TRI CITIES     CLEAR     62  51  67 NE12      30.25S
MIDLAND        FAIR      61  49  63 NE7       30.24S
TROY           CLEAR     68  44  42 N3        30.24R
SAGINAW HB     CLEAR     63  48  59 NE10G16   30.23S
$$
MIZ043>046-050>051-056>058-064>065-071>073-077>080-250000-
SOUTHWEST LOWER MICHIGAN

CITY           SKY/WX    TMP DP  RH WIND       PRES   REMARKS
BATTLE CREEK   CLEAR     70  56  61 NE7       30.19S
BENTON HARBOR  CLEAR     73  60  63 E6        30.15S
BIG RAPIDS     CLEAR     65  46  49 E7        30.21S
COLDWATER      CLEAR     69  56  64 E5        30.18S
FREMONT        FAIR      66  43  44 E7        30.20S
HOLLAND        CLEAR     69  56  62 E7        30.18F
GRAND RAPIDS   CLEAR     66  52  60 E7        30.20S
IONIA          FAIR      64  50  59 NE6       30.20S
KALAMAZOO      CLEAR     71  56  58 VRB3      30.18S
LUDINGTON      MOCLDY    67  52  59 E6        30.18F
MARSHALL       CLEAR     69  56  63 NE3       30.19R
MOUNT PLEASANT CLEAR     64  50  60 NE6       30.23S
MUSKEGON       CLEAR     68  52  56 E8        30.18F
SOUTH HAVEN    CLEAR     72  61  70 E5        30.17S
$$
MIZ016>042-250000-
NORTHERN LOWER MICHIGAN

CITY           SKY/WX    TMP DP  RH WIND       PRES   REMARKS
ALPENA         CLEAR     59  43  55 SE7       30.27S
BEAVER ISLAND  CLEAR     61  48  63 NE3       30.24F
BELLAIRE       CLEAR     66  44  45 CALM      30.22F
CADILLAC       CLEAR     63  48  57 SE5       30.21F
CHARLEVOIX     CLEAR     64  44  48 E8        30.25F
FRANKFORT      CLEAR     68  49  51 E3        30.19F
GAYLORD        CLEAR     61  42  49 E6        30.24F
GRAYLING       CLEAR     64  47  54 E5        30.24F
HARBOR SPRINGS CLEAR     61  46  56 E9        30.24S
HOUGHTON LAKE  PTCLDY    61  46  57 SE5       30.25S
MANISTEE       CLEAR     66  51  58 E7        30.18F
OSCODA         CLEAR     58  43  57 NE6       30.27S
PELLSTON       CLEAR     61  42  49 E7        30.25F
ROGERS CITY    CLEAR     59  42  52 E8        30.27F
TRAVERSE CITY  PTCLDY    67  49  52 CALM      30.19F
$$
MIZ007>008-015-250000-
EASTERN UPPER MICHIGAN

CITY           SKY/WX    TMP DP  RH WIND       PRES   REMARKS
KINROSS        CLEAR     59  45  59 S7        30.26S
MACKINAC ISLAN CLEAR     59  43  56 E6        30.25F
NEWBERRY       CLEAR     59  47  63 S5        30.23F
S. S. MARIE    CLEAR     63  44  50 SE6       30.24S
MUNISING         N/A     62  47  57 SE5       30.21S
$$
MIZ004>006-011>014-085-250000-
CENTRAL UPPER MICHIGAN

CITY           SKY/WX    TMP DP  RH WIND       PRES   REMARKS
MANISTIQUE     CLEAR     60  46  60 SE7       30.22F
MENOMINEE      CLEAR     64  52  64 SE9       30.19F
SAWYER-GWINN   CLEAR     63  46  55 S10       30.20F
$$
MIZ001>003-009>011-084-250000-
WESTERN UPPER MICHIGAN

CITY           SKY/WX    TMP DP  RH WIND       PRES   REMARKS
IRON MOUNTAIN  CLEAR     64  48  56 SE12      30.17F
HOUGHTON       CLEAR     62  53  72 E12       30.14F
COPPER HARBOR    N/A     63  52  67 VRB7      30.16F
IRONWOOD       CLEAR     69  57  65 SE8       30.11S
$$

ABBREVIATIONS USED IN REMARKS
   TC - TEMPERATURE IN CELSIUS
  WCI - WIND CHILL INDEX
   HX - HEAT INDEX
  VSB - VISIBILITY





USA.gov is the U.S. government's official web portal to all federal, state and local government web resources and services.